Flag for Dominican Republic Weather past 2 weeks in Santiago de los Caballeros, Dominican Republic

Now
75 °F

Passing clouds.


Feels Like: 74 °F
Forecast: 75 / 91 °F
Wind: 5 mph from Southeast

Location: Santiago

Current Time: Sep 2, 2014 at 1:22:35 AM

Latest Report: Sep 2, 2014 at 1:00 AM


Visibility: N/A

Pressure: 30.01 "Hg

Humidity: 94%

Dew point: 73 °F

Location of Santiago de los CaballerosLocation

Historic Weather in Santiago de los Caballeros — Graph

°F

Santiago de los Caballeros temperature yesterday

Maximum temperature yesterday: 88 °F (at 3:00 PM)
Minimum temperature yesterday: 73 °F (at 5:00 AM)
Average temperature yesterday: 79 °F

Past Weeks' High & Low Weather Summary

 TemperatureHumidityPressure
High97 °F (Aug 25, 7:00 PM)100% (Aug 18, 3:00 AM)30.23 "Hg (Aug 18, 3:00 AM)
Low68 °F (Aug 18, 11:00 AM)47% (Aug 19, 4:00 PM)29.71 "Hg (Aug 24, 3:00 PM)
Average80 °F84%29.95 "Hg
* Reported Midnight between Aug 17 and Aug 18 — Midnight between Sep 1 and Sep 2, Santiago de los Caballeros, Weather by CustomWeather, © 2014

Note: Actual official high and low records may vary slightly from our data, if they occured in-between our weather recording intervals... More about our weather records

Advertising

Santiago de los Caballeros weather history for previous 24 hours

 ConditionsComfort  
Time TempWeatherWind HumidityBarometerVisibility
12:00 AM
Sep 2
75 °FPassing clouds.5 mph94%30.01 "HgN/A
11:00 PM
Sep 1
75 °FPassing clouds.5 mph94%30.01 "HgN/A
10:00 PM77 °FPassing clouds.5 mph94%30.01 "HgN/A
9:00 PM77 °FPassing clouds.6 mph94%29.98 "HgN/A
8:00 PM77 °FPassing clouds.7 mph94%29.98 "HgN/A
7:00 PM79 °FPassing clouds.7 mph94%29.95 "HgN/A
6:00 PM77 °FRain showers. Scattered clouds.18 mph100%29.95 "Hg2 mi
5:00 PM82 °FScattered clouds.12 mph79%29.95 "HgN/A
4:00 PM82 °FSprinkles. Scattered clouds.23 mph79%29.95 "Hg4 mi
3:00 PM88 °FScattered clouds.12 mph62%29.95 "HgN/A
2:00 PM86 °FScattered clouds.12 mph66%29.98 "HgN/A
1:00 PM86 °FScattered clouds.12 mph66%30.01 "HgN/A
12:00 PM86 °FScattered clouds.14 mph70%30.01 "HgN/A
11:00 AM84 °FScattered clouds.9 mph74%30.04 "HgN/A
10:00 AM81 °FScattered clouds.12 mph84%30.04 "HgN/A
9:00 AM79 °FScattered clouds.8 mph89%30.04 "HgN/A
8:00 AM75 °FScattered clouds.6 mph100%30.01 "HgN/A
7:00 AM73 °FScattered clouds.5 mph100%30.01 "HgN/A
6:00 AM75 °FLight rain. Mostly cloudy.6 mph94%30.01 "Hg5 mi
5:00 AM73 °FLight rain. Mostly cloudy.8 mph100%29.98 "Hg5 mi
4:00 AM75 °FPartly cloudy.6 mph94%29.98 "HgN/A
3:00 AM75 °FLight rain. Passing clouds.7 mph94%30.01 "Hg5 mi
2:00 AM75 °FPassing clouds.6 mph94%30.01 "HgN/A
1:00 AM75 °FPartly cloudy.6 mph94%30.04 "HgN/A
Weather by CustomWeather, © 2014

See weather overviewHow to use our weather pages